^^
Station Historical Data
Daily Summary for April 17, 2018 Units:  Metric    English   Both
« Previous Day
Next Day »
Daily Weekly Monthly Yearly Custom
  High: Low: Average:
Temperature: -17.8 °C -1.7 °C 9.3 °C
Dew Point: -17.8 °C -2.9 °C 3.3 °C
Humidity: Humidity% 46% 69%
Wind Speed: 0km/h 0km/h 0.3km/h
Wind Gust: 0km/h - -
Wind- - SW
Pressure: 0 hPa 1015.1 hPa -
Precipitation: 0 mm    
Historical Graphs
 
 
Tabular Data for April 17, 2018
Time Temperature Dew Point Pressure Wind Wind Speed Wind Gust Humidity Rainfall Rate (Hourly)
-17.8 °C -17.8 °C 0 hPa Calm     Humidity% 0 mm
00:04 1.4 °C -1.7 °C 1020.5 hPa Calm     80% 0 mm
00:09 1.3 °C -1.6 °C 1020.5 hPa Calm     81% 0 mm
00:15 1.2 °C -1.9 °C 1020.5 hPa Calm     80% 0 mm
00:20 1 °C -2.1 °C 1020.5 hPa Calm     80% 0 mm
00:25 0.9 °C -2 °C 1020.5 hPa Calm     81% 0 mm
00:30 0.8 °C -2.1 °C 1020.2 hPa Calm     81% 0 mm
00:36 0.6 °C -2.1 °C 1020.5 hPa Calm     82% 0 mm
00:42 0.4 °C -2.1 °C 1020.5 hPa Calm     83% 0 mm
00:47 0.3 °C -2.1 °C 1020.5 hPa Calm     84% 0 mm
00:53 0.2 °C -2.2 °C 1020.5 hPa Calm     84% 0 mm
00:58 0.1 °C -2.1 °C 1020.5 hPa Calm     85% 0 mm
01:04 -0.1 °C -2.3 °C 1020.5 hPa Calm     85% 0 mm
01:09 -0.2 °C -2.4 °C 1020.5 hPa Calm     85% 0 mm
01:14 -0.2 °C -2.4 °C 1020.5 hPa Calm     85% 0 mm
01:20 -0.3 °C -2.4 °C 1020.2 hPa Calm     86% 0 mm
01:25 -0.3 °C -2.4 °C 1020.2 hPa Calm     86% 0 mm
01:31 -0.4 °C -2.3 °C 1020.2 hPa Calm     87% 0 mm
01:36 -0.4 °C -2.3 °C 1020.2 hPa Calm     87% 0 mm
01:41 -0.4 °C -2.3 °C 1020.2 hPa Calm     87% 0 mm
01:46 -0.5 °C -2.4 °C 1020.2 hPa Calm   1.6 km/h 87% 0 mm
01:52 -0.6 °C -2.3 °C 1020.2 hPa Calm     88% 0 mm
01:57 -0.6 °C -2.3 °C 1020.2 hPa Calm     88% 0 mm
02:02 -0.6 °C -2.3 °C 1020.2 hPa Calm     88% 0 mm
02:08 -0.6 °C -2.3 °C 1020.2 hPa Calm     88% 0 mm
02:13 -0.6 °C -2.2 °C 1020.2 hPa Calm     89% 0 mm
02:18 -0.7 °C -2.3 °C 1020.2 hPa Calm     89% 0 mm
02:24 -0.7 °C -2.3 °C 1020.2 hPa Calm     89% 0 mm
02:29 -0.8 °C -2.4 °C 1020.2 hPa Calm     89% 0 mm
02:34 -0.8 °C -2.4 °C 1020.2 hPa Calm     89% 0 mm
02:40 -0.8 °C -2.4 °C 1020.2 hPa Calm     89% 0 mm
02:45 -0.9 °C -2.5 °C 1020.2 hPa Calm     89% 0 mm
02:51 -0.9 °C -2.5 °C 1019.9 hPa Calm     89% 0 mm
02:56 -0.9 °C -2.5 °C 1019.9 hPa Calm     89% 0 mm
03:01 -1 °C -2.4 °C 1019.9 hPa Calm   1.6 km/h 90% 0 mm
03:07 -1 °C -2.4 °C 1019.9 hPa Calm     90% 0 mm
03:12 -1.1 °C -2.5 °C 1019.9 hPa Calm     90% 0 mm
03:18 -1.1 °C -2.5 °C 1019.9 hPa Calm     90% 0 mm
03:23 -1.1 °C -2.5 °C 1019.9 hPa Calm     90% 0 mm
03:28 -1.1 °C -2.5 °C 1019.9 hPa Calm     90% 0 mm
03:33 -1.1 °C -2.5 °C 1019.9 hPa Calm     90% 0 mm
03:38 -1.1 °C -2.4 °C 1019.9 hPa Calm     91% 0 mm
03:43 -1.1 °C -2.5 °C 1019.9 hPa Calm     90% 0 mm
03:49 -1.1 °C -2.5 °C 1019.9 hPa Calm     90% 0 mm
03:54 -1.1 °C -2.4 °C 1019.9 hPa Calm     91% 0 mm
03:59 -1 °C -2.3 °C 1020.2 hPa Calm     91% 0 mm
04:05 -0.9 °C -2.2 °C 1019.9 hPa Calm     91% 0 mm
04:10 -0.9 °C -2.3 °C 1019.9 hPa Calm     90% 0 mm
04:15 -0.9 °C -2.3 °C 1020.2 hPa Calm     90% 0 mm
04:20 -0.9 °C -2.3 °C 1020.2 hPa Calm     90% 0 mm
04:26 -0.9 °C -2.3 °C 1020.2 hPa Calm     90% 0 mm
04:31 -0.9 °C -2.3 °C 1020.2 hPa Calm     90% 0 mm
04:37 -0.9 °C -2.3 °C 1020.2 hPa Calm     90% 0 mm
04:42 -0.9 °C -2.3 °C 1020.5 hPa Calm     90% 0 mm
04:47 -1 °C -2.4 °C 1020.5 hPa Calm     90% 0 mm
04:52 -1 °C -2.4 °C 1020.2 hPa Calm     90% 0 mm
04:58 -1.1 °C -2.5 °C 1020.5 hPa Calm     90% 0 mm
05:03 -1.1 °C -2.5 °C 1020.2 hPa Calm     90% 0 mm
05:08 -1.1 °C -2.5 °C 1020.2 hPa Calm     90% 0 mm
05:13 -1.1 °C -2.5 °C 1020.2 hPa Calm     90% 0 mm
05:18 -1.1 °C -2.5 °C 1020.2 hPa Calm     90% 0 mm
05:23 -1.1 °C -2.5 °C 1020.5 hPa Calm     90% 0 mm
05:29 -1.1 °C -2.4 °C 1020.5 hPa Calm     91% 0 mm
05:34 -1.1 °C -2.4 °C 1020.2 hPa Calm     91% 0 mm
05:40 -1.2 °C -2.5 °C 1020.5 hPa Calm     91% 0 mm
05:45 -1.2 °C -2.5 °C 1020.5 hPa Calm     91% 0 mm
05:51 -1.2 °C -2.5 °C 1020.5 hPa Calm     91% 0 mm
05:56 -1.2 °C -2.5 °C 1020.5 hPa Calm     91% 0 mm
06:01 -1.2 °C -2.5 °C 1020.5 hPa Calm     91% 0 mm
06:06 -1.3 °C -2.6 °C 1020.5 hPa Calm     91% 0 mm
06:12 -1.3 °C -2.6 °C 1020.5 hPa Calm     91% 0 mm
06:17 -1.3 °C -2.6 °C 1020.5 hPa Calm     91% 0 mm
06:22 -1.3 °C -2.6 °C 1020.5 hPa Calm     91% 0 mm
06:27 -1.4 °C -2.7 °C 1020.5 hPa Calm     91% 0 mm
06:32 -1.4 °C -2.7 °C 1020.5 hPa Calm     91% 0 mm
06:37 -1.5 °C -2.8 °C 1020.5 hPa Calm     91% 0 mm
06:43 -1.6 °C -2.9 °C 1020.5 hPa Calm     91% 0 mm
06:48 -1.6 °C -2.9 °C 1020.5 hPa Calm     91% 0 mm
06:53 -1.6 °C -2.9 °C 1020.5 hPa Calm     91% 0 mm
06:58 -1.6 °C -2.7 °C 1020.5 hPa Calm     92% 0 mm
07:03 -1.7 °C -2.8 °C 1020.5 hPa Calm     92% 0 mm
07:08 -1.6 °C -2.7 °C 1020.9 hPa Calm     92% 0 mm
07:14 -1.7 °C -2.8 °C 1020.5 hPa Calm     92% 0 mm
07:19 -1.7 °C -2.8 °C 1020.9 hPa Calm     92% 0 mm
07:24 -1.7 °C -2.8 °C 1020.9 hPa Calm     92% 0 mm
07:30 -1.6 °C -2.6 °C 1020.9 hPa Calm     93% 0 mm
07:35 -1.6 °C -2.6 °C 1020.9 hPa Calm     93% 0 mm
07:40 -1.6 °C -2.6 °C 1020.9 hPa Calm     93% 0 mm
07:46 -1.4 °C -2.4 °C 1020.9 hPa Calm     93% 0 mm
07:51 -1.3 °C -2.3 °C 1020.9 hPa Calm     93% 0 mm
07:57 -1.2 °C -2.2 °C 1020.9 hPa Calm     93% 0 mm
08:02 -1 °C -2 °C 1021.2 hPa Calm     93% 0 mm
08:08 -0.8 °C -1.6 °C 1021.2 hPa Calm     94% 0 mm
08:13 -0.5 °C -1.3 °C 1021.2 hPa Calm     94% 0 mm
08:19 -0.2 °C -1 °C 1021.2 hPa Calm     94% 0 mm
08:24 0 °C -0.8 °C 1021.2 hPa Calm     94% 0 mm
08:30 0.2 °C -0.8 °C 1021.2 hPa Calm     93% 0 mm
08:36 0.4 °C -0.6 °C 1021.2 hPa Calm     93% 0 mm
08:42 0.8 °C -0.2 °C 1021.2 hPa Calm     93% 0 mm
08:47 1.1 °C 0.1 °C 1021.2 hPa Calm     93% 0 mm
08:52 1.4 °C 0.1 °C 1021.2 hPa Calm     91% 0 mm
08:58 1.9 °C 0.4 °C 1021.2 hPa Calm     90% 0 mm
09:03 2.4 °C 0.6 °C 1021.2 hPa Calm     88% 0 mm
09:08 2.9 °C 0.8 °C 1021.2 hPa Calm     86% 0 mm
09:13 3.4 °C 1.3 °C 1021.2 hPa NNW 1.4 km/h 1.6 km/h 86% 0 mm
09:18 4 °C 1.4 °C 1021.2 hPa Calm     83% 0 mm
09:24 4.6 °C 1.8 °C 1021.2 hPa Calm     82% 0 mm
09:29 4.9 °C 1.4 °C 1021.2 hPa Calm   1.6 km/h 78% 0 mm
09:34 5.4 °C 1.7 °C 1021.2 hPa Calm     77% 0 mm
09:40 5.7 °C 1.6 °C 1021.2 hPa Calm     75% 0 mm
09:45 6.1 °C 1.8 °C 1021.2 hPa Calm     74% 0 mm
09:50 6.4 °C 1.9 °C 1021.2 hPa Calm     73% 0 mm
09:55 6.8 °C 2.1 °C 1021.2 hPa Calm   3.2 km/h 72% 0 mm
10:01 7.3 °C 2.2 °C 1021.2 hPa Calm   1.6 km/h 70% 0 mm
10:06 7.8 °C 2.5 °C 1021.2 hPa Calm     69% 0 mm
10:12 8.2 °C 2.4 °C 1021.2 hPa NW 3.2 km/h 6.4 km/h 67% 0 mm
10:17 8.7 °C 3.1 °C 1021.2 hPa West 1.4 km/h 1.6 km/h 68% 0 mm
10:23 9 °C 2.6 °C 1021.2 hPa Calm   3.2 km/h 64% 0 mm
10:28 9.3 °C 2.6 °C 1021.2 hPa Calm   4.8 km/h 63% 0 mm
10:33 9.6 °C 2.4 °C 1021.2 hPa Calm   6.4 km/h 61% 0 mm
10:38 9.9 °C 3 °C 1021.2 hPa Calm   1.6 km/h 62% 0 mm
10:43 10.3 °C 3.3 °C 1021.2 hPa North 1.4 km/h 4.8 km/h 62% 0 mm
10:48 10.6 °C 2.9 °C 1021.2 hPa Calm   6.4 km/h 59% 0 mm
10:53 10.9 °C 3 °C 1021.2 hPa NNW 4.7 km/h 6.4 km/h 58% 0 mm
10:59 11.4 °C 3.2 °C 1021.2 hPa Calm   1.6 km/h 57% 0 mm
11:04 11.8 °C 3 °C 1021.2 hPa Calm   1.6 km/h 55% 0 mm
11:09 12.2 °C 3.4 °C 1021.2 hPa Calm   1.6 km/h 55% 0 mm
11:14 12.7 °C 3.6 °C 1021.2 hPa West 3.2 km/h 3.2 km/h 54% 0 mm
11:20 13.1 °C 3.7 °C 1021.2 hPa East 1.4 km/h 6.4 km/h 53% 0 mm
11:25 13.1 °C 3.5 °C 1021.2 hPa Calm     52% 0 mm
11:30 13.2 °C 3.8 °C 1021.2 hPa NW 3.2 km/h 6.4 km/h 53% 0 mm
11:35 13.3 °C 3.9 °C 1021.2 hPa Calm   3.2 km/h 53% 0 mm
11:40 13.5 °C 3.8 °C 1021.2 hPa Calm   1.6 km/h 52% 0 mm
11:45 13.5 °C 3.3 °C 1021.2 hPa Calm   11.3 km/h 50% 0 mm
11:51 13.6 °C 3.4 °C 1021.2 hPa North 1.4 km/h 3.2 km/h 50% 0 mm
11:56 13.6 °C 3.4 °C 1021.2 hPa Calm   9.7 km/h 50% 0 mm
12:01 13.5 °C 3.3 °C 1020.9 hPa NNW 1.4 km/h 1.6 km/h 50% 0 mm
12:06 13.6 °C 3.4 °C 1021.2 hPa Calm   6.4 km/h 50% 0 mm
12:11 13.8 °C 3.6 °C 1021.2 hPa Calm   4.8 km/h 50% 0 mm
12:17 13.8 °C 3.6 °C 1021.2 hPa NE 1.4 km/h 1.6 km/h 50% 0 mm
12:22 13.9 °C 3.6 °C 1020.9 hPa Calm   1.6 km/h 50% 0 mm
12:27 13.9 °C 3.1 °C 1020.9 hPa West 3.2 km/h 3.2 km/h 48% 0 mm
12:32 13.9 °C 3.4 °C 1020.9 hPa Calm   6.4 km/h 49% 0 mm
12:37 14.1 °C 3.8 °C 1020.9 hPa Calm   8 km/h 50% 0 mm
12:43 14.4 °C 4.4 °C 1020.9 hPa NNW 1.4 km/h 11.3 km/h 51% 0 mm
12:48 14.4 °C 3.2 °C 1020.5 hPa Calm   9.7 km/h 47% 0 mm
12:53 14.5 °C 4.2 °C 1020.5 hPa Calm   3.2 km/h 50% 0 mm
12:58 14.7 °C 4.4 °C 1020.5 hPa Calm   3.2 km/h 50% 0 mm
13:04 14.8 °C 3.9 °C 1020.5 hPa Calm   3.2 km/h 48% 0 mm
13:09 14.9 °C 4.3 °C 1020.2 hPa Calm   3.2 km/h 49% 0 mm
13:14 15.2 °C 4.3 °C 1020.2 hPa Calm   4.8 km/h 48% 0 mm
13:19 15.2 °C 4 °C 1020.2 hPa Calm     47% 0 mm
13:24 15.2 °C 4 °C 1020.2 hPa WNW 7.9 km/h 8 km/h 47% 0 mm
13:29 15.2 °C 4.6 °C 1020.2 hPa Calm   1.6 km/h 49% 0 mm
13:34 15.5 °C 5.4 °C 1019.9 hPa Calm   8 km/h 51% 0 mm
13:40 15.7 °C 5 °C 1019.9 hPa Calm     49% 0 mm
13:45 15.8 °C 5.1 °C 1019.9 hPa North 1.4 km/h 6.4 km/h 49% 0 mm
13:50 15.9 °C 5.2 °C 1019.9 hPa NW 4.7 km/h 4.8 km/h 49% 0 mm
13:56 16.1 °C 4.8 °C 1019.9 hPa Calm   3.2 km/h 47% 0 mm
14:01 16.1 °C 5.1 °C 1019.9 hPa Calm   9.7 km/h 48% 0 mm
14:06 16.1 °C 5.7 °C 1019.9 hPa Calm   6.4 km/h 50% 0 mm
14:11 16.3 °C 5.9 °C 1019.9 hPa Calm   1.6 km/h 50% 0 mm
14:16 16.4 °C 5.4 °C 1019.5 hPa Calm   1.6 km/h 48% 0 mm
14:22 16.6 °C 4.9 °C 1019.5 hPa Calm   6.4 km/h 46% 0 mm
14:27 16.8 °C 5.4 °C 1019.2 hPa Calm   8 km/h 47% 0 mm
14:32 16.8 °C 5.1 °C 1019.2 hPa West 1.4 km/h 9.7 km/h 46% 0 mm
14:37 17.1 °C 6.3 °C 1019.2 hPa WSW 3.2 km/h 6.4 km/h 49% 0 mm
14:42 17.2 °C 6.1 °C 1019.2 hPa Calm   11.3 km/h 48% 0 mm
14:47 17.3 °C 6.2 °C 1018.8 hPa WNW 4.7 km/h 11.3 km/h 48% 0 mm
14:52 17.3 °C 5.9 °C 1018.8 hPa Calm   8 km/h 47% 0 mm
14:57 17.5 °C 6.4 °C 1018.8 hPa Calm   1.6 km/h 48% 0 mm
15:03 17.7 °C 6.2 °C 1018.8 hPa WNW 1.4 km/h 9.7 km/h 47% 0 mm
15:08 17.8 °C 6.6 °C 1018.5 hPa Calm   11.3 km/h 48% 0 mm
15:13 18 °C 6.5 °C 1018.5 hPa WNW 1.4 km/h 3.2 km/h 47% 0 mm
15:19 18.1 °C 6.6 °C 1018.5 hPa Calm   4.8 km/h 47% 0 mm
15:24 18.3 °C 7.1 °C 1018.2 hPa Calm   3.2 km/h 48% 0 mm
15:29 18.6 °C 7.4 °C 1018.2 hPa Calm     48% 0 mm
15:35 18.7 °C 7.5 °C 1017.8 hPa Calm   1.6 km/h 48% 0 mm
15:40 18.8 °C 6.9 °C 1017.8 hPa NNW 9.7 km/h 12.9 km/h 46% 0 mm
15:45 18.9 °C 7.3 °C 1017.8 hPa Calm   8 km/h 47% 0 mm
15:50 19.2 °C 7.6 °C 1017.8 hPa Calm   1.6 km/h 47% 0 mm
15:55 19.3 °C 7.4 °C 1017.8 hPa Calm   11.3 km/h 46% 0 mm
16:01 19.3 °C 7.4 °C 1017.5 hPa Calm   8 km/h 46% 0 mm
16:07 19.5 °C 7.9 °C 1017.5 hPa ESE 6.4 km/h 12.9 km/h 47% 0 mm
16:12 19.6 °C 7.7 °C 1017.2 hPa North 1.4 km/h 1.6 km/h 46% 0 mm
16:17 19.7 °C 8.1 °C 1017.2 hPa Calm   4.8 km/h 47% 0 mm
16:22 19.9 °C 8.6 °C 1016.8 hPa WNW 1.4 km/h 8 km/h 48% 0 mm
16:27 20.2 °C 8.5 °C 1016.8 hPa Calm   8 km/h 47% 0 mm
16:32 20.3 °C 8.9 °C 1016.8 hPa SE 1.4 km/h 6.4 km/h 48% 0 mm
16:37 20.4 °C 8.4 °C 1016.5 hPa Calm   8 km/h 46% 0 mm
16:42 20.6 °C 8.9 °C 1016.5 hPa Calm   8 km/h 47% 0 mm
16:48 20.6 °C 8.6 °C 1016.5 hPa Calm   6.4 km/h 46% 0 mm
16:53 20.6 °C 9.5 °C 1016.5 hPa Calm   1.6 km/h 49% 0 mm
16:58 20.6 °C 8.9 °C 1016.5 hPa WNW 4.7 km/h 11.3 km/h 47% 0 mm
17:03 20.7 °C 9 °C 1016.5 hPa WNW 1.4 km/h 6.4 km/h 47% 0 mm
17:09 20.8 °C 9.4 °C 1016.5 hPa Calm     48% 0 mm
17:14 20.9 °C 8.8 °C 1016.5 hPa WSW 1.4 km/h 3.2 km/h 46% 0 mm
17:19 20.8 °C 9.1 °C 1016.5 hPa Calm   1.6 km/h 47% 0 mm
17:24 20.7 °C 9.3 °C 1016.1 hPa Calm   3.2 km/h 48% 0 mm
17:29 20.7 °C 9.3 °C 1016.1 hPa West 1.4 km/h 6.4 km/h 48% 0 mm
17:35 20.8 °C 9.7 °C 1016.1 hPa Calm   4.8 km/h 49% 0 mm
17:40 20.9 °C 9.5 °C 1016.1 hPa ESE 1.4 km/h 6.4 km/h 48% 0 mm
17:45 20.9 °C 9.5 °C 1016.1 hPa Calm   4.8 km/h 48% 0 mm
17:51 20.8 °C 9.4 °C 1016.1 hPa Calm   4.8 km/h 48% 0 mm
17:56 20.9 °C 9.8 °C 1016.1 hPa Calm   3.2 km/h 49% 0 mm
18:01 20.8 °C 9.7 °C 1015.8 hPa Calm   1.6 km/h 49% 0 mm
18:06 20.8 °C 10 °C 1015.8 hPa Calm   4.8 km/h 50% 0 mm
18:12 20.8 °C 10 °C 1015.8 hPa Calm   4.8 km/h 50% 0 mm
18:17 20.8 °C 9.7 °C 1015.8 hPa WNW 3.2 km/h 8 km/h 49% 0 mm
18:22 20.9 °C 9.5 °C 1015.8 hPa Calm   6.4 km/h 48% 0 mm
18:28 20.8 °C 9.4 °C 1015.8 hPa Calm   1.6 km/h 48% 0 mm
18:33 20.9 °C 9.8 °C 1015.8 hPa Calm     49% 0 mm
18:38 20.9 °C 9.8 °C 1015.5 hPa Calm   1.6 km/h 49% 0 mm
18:43 20.8 °C 9.7 °C 1015.5 hPa Calm   3.2 km/h 49% 0 mm
18:49 20.7 °C 10.5 °C 1015.5 hPa WNW 6.4 km/h 14.5 km/h 52% 0 mm
18:54 20.7 °C 9.6 °C 1015.5 hPa Calm   1.6 km/h 49% 0 mm
18:59 20.7 °C 9.6 °C 1015.5 hPa Calm     49% 0 mm
19:04 20.6 °C 9.8 °C 1015.5 hPa NW 1.4 km/h 1.6 km/h 50% 0 mm
19:10 20.5 °C 9.7 °C 1015.5 hPa Calm     50% 0 mm
19:15 20.3 °C 9.8 °C 1015.5 hPa NNW 6.4 km/h 6.4 km/h 51% 0 mm
19:20 20.2 °C 9.1 °C 1015.5 hPa East 1.4 km/h 3.2 km/h 49% 0 mm
19:25 20.2 °C 9.4 °C 1015.5 hPa North 1.4 km/h 1.6 km/h 50% 0 mm
19:30 20.1 °C 9.1 °C 1015.1 hPa Calm   3.2 km/h 49% 0 mm
19:35 20 °C 9.6 °C 1015.5 hPa Calm     51% 0 mm
19:41 19.8 °C 9.1 °C 1015.1 hPa Calm     50% 0 mm
19:46 19.8 °C 9.1 °C 1015.1 hPa Calm   3.2 km/h 50% 0 mm
19:52 19.6 °C 8.9 °C 1015.1 hPa Calm   1.6 km/h 50% 0 mm
19:57 19.5 °C 9.1 °C 1015.1 hPa Calm     51% 0 mm
20:02 19.3 °C 9.2 °C 1015.1 hPa Calm     52% 0 mm
20:07 19.1 °C 9 °C 1015.1 hPa Calm     52% 0 mm
20:13 18.9 °C 8.8 °C 1015.1 hPa Calm     52% 0 mm
20:18 18.7 °C 8.9 °C 1015.1 hPa Calm     53% 0 mm
20:23 18.5 °C 8.7 °C 1015.5 hPa Calm     53% 0 mm
20:29 18.3 °C 8.8 °C 1015.5 hPa Calm     54% 0 mm
20:34 18 °C 8.8 °C 1015.5 hPa Calm     55% 0 mm
20:40 17.8 °C 8.9 °C 1015.5 hPa Calm     56% 0 mm
20:45 17.6 °C 9 °C 1015.5 hPa Calm     57% 0 mm
20:50 17.3 °C 9 °C 1015.5 hPa Calm     58% 0 mm
20:55 17.1 °C 9 °C 1015.5 hPa Calm     59% 0 mm
21:00 16.8 °C 9 °C 1015.5 hPa Calm     60% 0 mm
21:05 16.7 °C 9.1 °C 1015.5 hPa Calm     61% 0 mm
21:11 16.3 °C 9 °C 1015.5 hPa Calm     62% 0 mm
21:16 16.1 °C 9.1 °C 1015.5 hPa Calm     63% 0 mm
21:22 15.7 °C 9.1 °C 1015.5 hPa Calm     65% 0 mm
21:27 15.4 °C 9.3 °C 1015.5 hPa Calm     67% 0 mm
21:33 15.1 °C 9.2 °C 1015.5 hPa Calm     68% 0 mm
21:38 14.8 °C 9.2 °C 1015.8 hPa Calm     69% 0 mm
21:44 14.5 °C 9.1 °C 1015.8 hPa Calm     70% 0 mm
21:50 14.2 °C 9 °C 1015.8 hPa Calm     71% 0 mm
21:55 14 °C 9 °C 1015.8 hPa Calm     72% 0 mm
22:00 13.8 °C 9 °C 1015.8 hPa Calm     73% 0 mm
22:05 13.6 °C 9.1 °C 1015.8 hPa Calm     74% 0 mm
22:10 13.3 °C 9 °C 1015.8 hPa Calm     75% 0 mm
22:16 13 °C 8.7 °C 1015.8 hPa Calm     75% 0 mm
22:21 12.8 °C 8.7 °C 1016.1 hPa Calm     76% 0 mm
22:26 12.6 °C 8.7 °C 1016.1 hPa Calm     77% 0 mm
22:31 12.4 °C 8.7 °C 1016.1 hPa Calm     78% 0 mm
22:37 12.2 °C 8.5 °C 1016.1 hPa Calm     78% 0 mm
22:43 12.1 °C 8.6 °C 1016.1 hPa Calm     79% 0 mm
22:48 11.9 °C 8.4 °C 1016.1 hPa Calm     79% 0 mm
22:54 11.8 °C 8.5 °C 1016.1 hPa Calm     80% 0 mm
22:59 11.6 °C 8.5 °C 1016.1 hPa Calm     81% 0 mm
23:05 11.4 °C 8.3 °C 1016.1 hPa Calm     81% 0 mm
23:10 11.3 °C 8.3 °C 1016.1 hPa Calm     82% 0 mm
23:15 11.3 °C 8.3 °C 1016.1 hPa Calm     82% 0 mm
23:21 11.2 °C 8.4 °C 1016.1 hPa Calm     83% 0 mm
23:26 11 °C 8.2 °C 1016.1 hPa Calm     83% 0 mm
23:31 10.9 °C 8.1 °C 1016.1 hPa Calm     83% 0 mm
23:36 10.8 °C 8.2 °C 1016.1 hPa Calm     84% 0 mm
23:41 10.8 °C 8.2 °C 1016.1 hPa Calm     84% 0 mm
23:46 10.8 °C 8.2 °C 1016.1 hPa Calm     84% 0 mm
23:51 10.8 °C 8.2 °C 1016.1 hPa Calm     84% 0 mm
23:57 10.7 °C 8.3 °C 1016.1 hPa Calm     85% 0 mm
Ellijay Weather
Compliments of Weather Underground - 2.5 mb